Погода в Барановке

Украина / Житомирская область     50°17′37″N   27°39′59″E
темп.,
°C
ветер,
м/с
пор.,
м/с
влажн.,
%
обл.,
%
осадки,
мм/ч
давл.,
гПа
погр.,
м
22 октября, пт
пт2200:00+15з71557100 0.0 10061225
03:00+13з7136495 0.0 10071083
06:00+12зюз71464100 0.0 10081052
09:00+12з714635 0.0 10101232
12:00+14з8154644 0.0 10121791
15:00+14з8164412 0.0 10121802
18:00+13з61148100 0.0 10121466
21:00+9зюз3668100 0.0 1013141
23 октября, сб
сб2300:00+8юз4106539 0.0 1013361
03:00+9зюз613565 0.0 1013831
06:00+7зюз613495 0.0 1014789
09:00+8з7135299 0.0 10151677
12:00+9з8114820 0.0 10181744
15:00+10з71142100 0.0 10182223
18:00+7зсз6115916 0.1 1020882
21:00+4зюз3106377 0.1 1021291
24 октября, вс
вс2400:00+4з4117221 0.0 1022464
03:00+4з5118172 0.0 1023610
06:00+3зсз5119274 0.0 1024529
09:00+3зсз51194100 0.0 1026733
12:00+5сз6961100 0.0 10281242
15:00+5сз5966100 0.0 10291351
18:00+6сз595172 0.0 10301290
21:00+3сз3969100 0.0 1031288
25 октября, пн
пн2500:00+2сз357198 0.0 103282
03:00+2сз247251 0.0 103381
06:000ссз228293 0.0 103411
09:00+1ссв11755 0.0 103540
12:00+6вюв115018 0.0 1034636
15:00+8ююв22395 0.0 1033932
18:00+5юв22494 0.0 103217
21:00+3юв36535 0.0 103293
26 октября, вт
вт2600:00+2ююв39565 0.0 1032156
03:00+1ююв410575 0.0 1032207
06:00+1ююв411595 0.0 1030215
09:00+2ю4125534 0.0 1030330
12:00+9ю6936100 0.0 1028680
15:00+12ююз5831100 0.0 1026934
18:00+8ююз4943100 0.0 1025177
21:00+6ююз31050100 0.0 1026217